EW2832 Weather Reports


time (UTC)temp
F
wind
direction
speed
knots
gust
knots
rain 1hr
in
rain 24hr
in
rain mn
in
humidity
%
barometer
mb
20260504100500 53 225 17.4 18.2 0.00 0.00 0.00 52 1006.4
20260504082002 54 225 20.0 22.6 0.00 0.00 0.00 49 1007.0
20260504081502 54 225 20.9 22.6 0.00 0.00 0.00 48 1007.1
20260504081001 54 225 19.1 22.6 0.00 0.00 0.00 47 1007.1
20260504080500 54 225 18.2 20.0 0.00 0.00 0.00 49 1007.1
20260504050001 53 191 20.9 21.7 0.00 0.00 0.00 48 1009.4
20260504045502 53 182 20.9 23.5 0.00 0.00 0.00 48 1009.6
20260504045001 53 185 21.7 24.3 0.00 0.00 0.00 48 1009.5
20260504044501 53 192 21.7 24.3 0.00 0.00 0.00 48 1009.7
20260504044000 53 193 21.7 23.5 0.00 0.00 0.00 48 1009.6
20260504043501 53 189 21.7 23.5 0.00 0.00 0.00 48 1009.6
20260504043001 53 184 21.7 23.5 0.00 0.00 0.00 48 1009.7
20260504042501 53 186 20.9 21.7 0.00 0.00 0.00 49 1009.7
20260504042001 53 194 20.9 20.9 0.00 0.00 0.00 49 1009.8
20260504041500 53 199 21.7 23.5 0.00 0.00 0.00 48 1009.9
20260504041000 53 191 22.6 23.5 0.00 0.00 0.00 48 1009.9
20260504040501 53 182 21.7 23.5 0.00 0.00 0.00 49 1009.9
20260504040001 53 190 20.0 23.5 0.00 0.00 0.00 49 1010.0
20260504035500 53 200 19.1 21.7 0.00 0.00 0.00 50 1010.0
20260504035001 53 200 18.2 20.0 0.00 0.00 0.00 51 1010.1
20260504034501 53 198 18.2 19.1 0.00 0.00 0.00 51 1010.2
20260504034000 53 195 18.2 20.0 0.00 0.00 0.00 51 1010.3
20260504032501 53 192 17.4 19.1 0.00 0.00 0.00 52 1010.4
20260504032001 53 189 17.4 19.1 0.00 0.00 0.00 51 1010.4
20260504031500 53 191 18.2 20.0 0.00 0.00 0.00 52 1010.5
20260504031000 53 186 17.4 20.0 0.00 0.00 0.00 51 1010.5
20260504030000 53 196 17.4 18.2 0.00 0.00 0.00 52 1010.5
20260504025500 53 198 17.4 18.2 0.00 0.00 0.00 51 1010.7
20260504025001 53 199 17.4 18.2 0.00 0.00 0.00 51 1010.6
20260504024500 53 197 17.4 20.0 0.00 0.00 0.00 51 1010.8
20260504024000 53 199 16.5 20.0 0.00 0.00 0.00 51 1010.7
20260504023500 53 201 16.5 17.4 0.00 0.00 0.00 51 1010.8
20260504023002 53 208 16.5 18.2 0.00 0.00 0.00 51 1010.8
20260504022500 53 212 17.4 18.2 0.00 0.00 0.00 50 1010.9
20260504022000 53 205 18.2 20.0 0.00 0.00 0.00 50 1011.0
20260504021500 53 209 17.4 20.0 0.00 0.00 0.00 50 1010.8
20260504021001 53 219 16.5 20.0 0.00 0.00 0.00 50 1010.9
20260504020501 53 222 17.4 20.0 0.00 0.00 0.00 49 1010.8
20260504015500 53 227 18.2 20.0 0.00 0.00 0.00 48 1010.9
20260504015000 54 224 19.1 20.0 0.00 0.00 0.00 48 1010.9
20260504014500 53 222 19.1 20.9 0.00 0.00 0.00 48 1011.0
20260504013501 53 225 20.0 20.9 0.00 0.00 0.00 45 1011.0
20260504013000 54 221 20.9 22.6 0.00 0.00 0.00 46 1011.0
20260504012500 54 222 21.7 23.5 0.00 0.00 0.00 46 1011.0
20260504012001 54 225 21.7 23.5 0.00 0.00 0.00 47 1010.9
20260504011501 54 231 20.9 23.5 0.00 0.00 0.00 47 1011.0
20260504011000 55 242 21.7 23.5 0.00 0.00 0.00 46 1011.0
20260504010500 56 239 20.9 23.5 0.00 0.00 0.00 45 1011.1
20260504005501 55 222 20.0 21.7 0.00 0.00 0.00 44 1010.9
20260504005000 55 232 19.1 20.0 0.00 0.00 0.00 37 1011.1
20260504004501 56 247 19.1 22.6 0.00 0.00 0.00 37 1010.9
20260504004001 56 238 20.0 24.3 0.00 0.00 0.00 38 1010.9
20260504003500 56 235 20.0 24.3 0.00 0.00 0.00 39 1010.9
20260504003001 56 243 19.1 22.6 0.00 0.00 0.00 40 1010.9
20260504002500 56 239 20.9 23.5 0.00 0.00 0.00 40 1010.9
20260504002000 56 230 20.0 23.5 0.00 0.00 0.00 40 1010.8
20260504001500 56 225 20.9 23.5 0.00 0.00 0.00 42 1010.4
20260504001001 56 222 21.7 23.5 0.00 0.00 0.00 45 1010.5
20260504000500 56 223 22.6 26.1 0.00 0.00 0.00 43 1010.5
20260503235000 56 225 20.0 20.0 0.00 0.00 0.00 42 1010.3
20260503234500 56 225 19.1 20.0 0.00 0.00 0.00 42 1010.5
20260503234000 56 225 19.1 20.0 0.00 0.00 0.00 42 1010.3
20260503233501 56 225 19.1 20.0 0.00 0.00 0.00 41 1010.3
20260503233001 56 225 20.0 21.7 0.00 0.00 0.00 41 1010.3
20260503232500 57 223 20.9 21.7 0.00 0.00 0.00 39 1010.3
20260503232000 57 222 20.9 21.7 0.00 0.00 0.00 39 1010.5
20260503231459 56 224 20.9 23.5 0.00 0.00 0.00 38 1010.3
20260503231001 57 225 20.9 23.5 0.00 0.00 0.00 39 1010.4
20260503230500 57 225 20.9 23.5 0.00 0.00 0.00 39 1010.5
20260503230000 57 225 20.9 23.5 0.00 0.00 0.00 38 1010.5
20260503225500 57 225 20.0 21.7 0.00 0.00 0.00 38 1010.4
20260503225001 57 225 19.1 20.0 0.00 0.00 0.00 37 1010.6
20260503223959 58 224 20.0 20.9 0.00 0.00 0.00 37 1010.5
20260503223500 58 225 20.9 25.2 0.00 0.00 0.00 36 1010.5
20260503222500 58 224 19.1 20.9 0.00 0.00 0.00 37 1010.6
20260503222001 58 224 20.0 21.7 0.00 0.00 0.00 37 1010.7
20260503221500 58 225 19.1 21.7 0.00 0.00 0.00 37 1010.7
20260503220500 58 225 18.2 19.1 0.00 0.00 0.00 37 1010.8
20260503220000 58 225 18.2 20.0 0.00 0.00 0.00 37 1010.7
20260503215500 58 225 18.2 20.0 0.00 0.00 0.00 37 1010.7
20260503214501 58 223 18.2 19.1 0.00 0.00 0.00 37 1010.8
20260503214000 58 224 19.1 21.7 0.00 0.00 0.00 37 1010.8
20260503213500 57 225 20.0 23.5 0.00 0.00 0.00 37 1010.8
20260503213000 58 224 20.0 23.5 0.00 0.00 0.00 36 1010.7
20260503211501 58 225 20.0 20.9 0.00 0.00 0.00 36 1010.9
20260503210959 58 225 20.0 20.0 0.00 0.00 0.00 37 1010.8
20260503210459 59 225 20.0 20.0 0.00 0.00 0.00 35 1010.8
20260503210000 59 225 19.1 20.0 0.00 0.00 0.00 35 1010.8
20260503205459 59 225 18.2 20.0 0.00 0.00 0.00 35 1010.8
20260503205000 60 222 19.1 20.0 0.00 0.00 0.00 35 1010.9
20260503203500 60 227 18.2 19.1 0.00 0.00 0.00 35 1011.0
20260503202959 60 227 17.4 19.1 0.00 0.00 0.00 36 1011.2
20260503202500 60 224 16.5 18.2 0.00 0.00 0.00 37 1011.1
20260503202000 59 224 17.4 20.0 0.00 0.00 0.00 37 1011.1
20260503201000 59 222 19.1 21.7 0.00 0.00 0.00 33 1011.2
20260503200500 59 225 19.1 20.0 0.00 0.00 0.00 35 1011.3
20260503200000 59 225 18.2 20.0 0.00 0.00 0.00 35 1011.3
20260503195500 59 225 18.2 19.1 0.00 0.00 0.00 37 1011.4
20260503195000 59 225 18.2 20.0 0.00 0.00 0.00 36 1011.4
20260503194500 59 225 18.2 20.0 0.00 0.00 0.00 35 1011.5
20260503193500 59 224 17.4 18.2 0.00 0.00 0.00 36 1011.6
20260503193000 59 224 15.6 18.2 0.00 0.00 0.00 36 1011.7
20260503192459 59 225 15.6 17.4 0.00 0.00 0.00 36 1011.8
20260503192000 59 225 15.6 17.4 0.00 0.00 0.00 36 1011.8
20260503191501 59 224 15.6 16.5 0.00 0.00 0.00 37 1011.9
20260503191000 59 224 15.6 16.5 0.00 0.00 0.00 38 1011.9
20260503190501 58 227 15.6 16.5 0.00 0.00 0.00 40 1012.1
20260503190000 58 226 14.8 16.5 0.00 0.00 0.00 40 1012.1
20260503185500 58 222 13.0 14.8 0.00 0.00 0.00 42 1012.1
20260503185000 57 217 11.3 13.0 0.00 0.00 0.00 44 1012.2
20260503184500 58 213 11.3 13.0 0.00 0.00 0.00 44 1012.5
20260503183959 58 214 11.3 13.0 0.00 0.00 0.00 42 1012.4
20260503183500 58 217 10.4 11.3 0.00 0.00 0.00 45 1012.6
20260503182959 58 218 11.3 11.3 0.00 0.00 0.00 44 1012.6
20260503182500 58 219 11.3 13.0 0.00 0.00 0.00 43 1012.8
20260503181959 58 224 12.2 13.0 0.00 0.00 0.00 42 1012.9
20260503181501 58 224 13.0 13.0 0.00 0.00 0.00 42 1013.0
20260503180959 58 224 13.0 13.0 0.00 0.00 0.00 42 1012.9
20260503180000 58 225 13.9 14.8 0.00 0.00 0.00 39 1013.0
20260503175500 58 225 13.9 15.6 0.00 0.00 0.00 40 1013.2
20260503175001 58 225 14.8 16.5 0.00 0.00 0.00 40 1013.2
20260503174459 57 222 15.6 16.5 0.00 0.00 0.00 41 1013.2
20260503173959 56 223 15.6 17.4 0.00 0.00 0.00 41 1013.3
20260503173500 56 225 15.6 18.2 0.00 0.00 0.00 40 1013.4
20260503173000 56 222 15.6 18.2 0.00 0.00 0.00 39 1013.6
20260503172500 56 219 16.5 18.2 0.00 0.00 0.00 40 1013.6
20260503172001 55 222 17.4 19.1 0.00 0.00 0.00 39 1013.4
20260503171500 55 225 17.4 19.1 0.00 0.00 0.00 39 1013.5
20260503170959 55 225 16.5 18.2 0.00 0.00 0.00 39 1013.6
20260503170500 56 225 16.5 17.4 0.00 0.00 0.00 37 1013.7
20260503150459 52 225 20.9 22.6 0.00 0.00 0.00 33 1014.7
20260503130959 50 248 22.6 23.5 0.00 0.00 0.00 37 1014.9
20260503130459 51 247 22.6 23.5 0.00 0.00 0.00 35 1015.0